Wind_Speed
68 67 66 65 64 62 60 58 58 55 53 52 52 50 48 48 46 42 38 35 32 30 27 26 21 19 19 13 15 14 9 8 5 4 5 7 10 14 13 16 21 23 33 34 37
62 69 69 68 66 64 62 61 59 59 57 55 53 52 50 49 50 48 45 40 37 33 31 28 25 25 22 19 13 13 10 9 9 5 4 3 6 12 8 13 19 27 32 30 31
55 61 69 70 70 69 64 63 61 60 59 57 56 55 53 52 50 50 49 47 41 41 35 31 30 28 26 22 17 17 12 13 11 11 4 1 4 7 8 10 19 24 25 28 29
50 54 59 66 73 72 69 66 65 63 62 61 58 58 56 55 53 53 53 52 46 42 41 40 34 32 29 28 25 19 17 12 15 16 12 5 4 5 5 8 10 14 18 20 24
43 48 52 57 65 71 72 73 70 67 64 63 63 61 59 56 56 55 53 53 49 47 45 42 41 38 32 32 29 26 23 18 16 20 15 12 11 6 6 5 4 13 10 19 21
41 43 47 48 53 59 69 74 74 71 68 65 64 65 63 61 59 58 55 54 52 48 48 47 46 43 40 38 35 31 28 27 21 21 22 19 17 18 8 8 9 6 12 19 21
42 43 44 46 46 52 59 67 73 76 72 71 68 66 65 66 64 62 59 56 55 51 50 47 48 49 46 43 41 37 34 32 29 27 28 25 23 22 14 11 7 5 13 15 20
44 45 46 45 46 46 52 56 63 71 75 74 73 70 67 68 69 67 64 62 59 55 53 51 49 49 53 50 47 45 43 39 36 34 31 30 28 25 23 14 12 13 14 14 14
45 45 47 48 48 49 49 53 57 62 65 74 77 75 73 70 68 69 69 68 64 61 59 55 52 51 52 54 55 54 49 45 29 41 38 35 33 31 28 24 18 16 16 14 15
43 44 45 47 49 52 52 53 57 62 62 65 75 80 77 74 73 72 70 70 70 67 64 61 58 57 56 55 56 57 57 53 50 47 44 40 36 32 30 30 25 21 18 17 16
41 44 46 46 49 51 54 56 57 61 65 65 66 75 82 79 78 75 74 72 72 71 66 65 62 61 62 61 59 54 55 54 52 51 48 44 41 38 34 30 28 26 21 19 17
37 38 42 46 49 51 53 56 60 62 65 69 69 70 78 86 88 84 81 77 74 71 72 70 65 68 67 64 60 59 56 53 51 50 49 47 45 42 40 36 33 29 27 25 22
42 43 44 45 48 52 56 60 63 65 69 68 74 74 75 81 86 90 90 86 80 76 74 71 70 73 70 68 65 62 61 58 54 49 50 48 46 44 42 40 38 35 32 29 26
47 48 50 52 53 55 56 59 61 64 69 68 73 77 80 80 85 88 91 92 89 82 79 75 77 72 71 70 68 66 64 62 58 55 53 51 49 49 46 44 41 39 36 31 27
42 47 52 57 60 62 63 64 65 66 69 70 74 80 81 85 84 89 91 94 92 92 90 79 80 76 72 72 71 68 67 64 60 58 55 54 51 48 46 43 42 40 38 35 28
37 41 44 48 52 58 62 68 72 75 78 79 81 81 85 87 87 88 90 94 95 96 94 90 88 83 77 78 77 76 74 70 64 61 57 56 53 51 51 46 43 40 38 34 29
34 37 40 45 49 54 59 63 68 74 81 87 89 89 86 90 89 90 89 92 94 97 96 95 93 91 87 82 80 77 75 72 68 64 60 59 58 56 50 47 44 40 38 36 32
32 35 38 42 46 49 54 60 67 73 80 86 91 93 91 91 88 92 92 93 93 96 99 100 101 95 93 87 85 82 78 73 69 66 63 62 59 54 52 48 45 42 40 37 34
27 30 34 35 36 37 41 47 55 64 75 84 87 87 90 93 95 95 93 95 98 98 97 102 100 102 100 96 95 88 85 77 76 72 71 67 64 61 55 53 48 46 42 39 35
27 29 31 27 25 28 31 35 38 43 53 70 84 84 79 84 90 101 102 104 105 103 105 101 101 104 102 101 97 97 87 90 83 78 73 70 67 63 59 55 51 47 44 41 37
27 27 24 25 28 30 33 33 31 35 40 48 62 79 79 76 79 94 102 111 108 107 105 98 98 97 104 99 98 96 96 92 87 83 78 75 71 69 66 60 56 52 50 46 42
25 24 25 27 29 33 35 41 45 45 40 35 47 60 61 64 71 80 98 108 112 111 103 102 103 101 101 95 101 102 99 95 91 84 81 78 76 76 71 66 58 58 51 50 47
22 24 26 29 32 33 40 44 50 53 55 41 32 47 52 55 67 79 89 100 103 111 110 113 109 106 105 102 103 101 97 95 91 91 90 85 80 81 73 68 61 57 56 53 49
24 26 29 32 35 39 43 48 52 58 60 54 37 35 45 50 56 70 85 93 97 108 111 116 113 107 105 103 97 97 99 100 95 96 87 84 84 82 76 74 69 61 59 56 53
24 27 30 34 39 42 47 51 56 60 63 64 46 33 39 47 50 61 73 83 97 105 110 115 117 114 110 107 105 104 101 98 97 91 91 87 88 84 81 85 67 64 63 60 56
27 30 33 37 40 44 50 54 58 62 66 67 53 34 34 42 44 52 60 76 90 100 109 115 114 117 116 111 107 108 103 98 96 94 95 94 91 86 95 85 68 66 64 61 60
28 31 36 39 42 46 52 55 60 63 68 70 59 42 26 31 39 43 53 64 77 89 104 111 113 117 117 115 111 104 104 102 96 95 94 94 91 95 97 73 69 70 69 67 65
Wind_Direction
211 212 212 212 212 213 213 213 211 210 210 211 211 210 208 209 208 207 201 193 198 203 202 207 208 191 192 181 161 166 170 185 159 131 110 59 60 27 33 14 10 20 25 20 20
212 214 215 217 216 216 216 215 216 216 214 213 215 215 212 211 215 214 214 209 206 207 212 211 212 201 203 215 199 175 175 182 176 184 144 71 20 25 44 16 8 45 15 16 20
216 217 218 219 222 221 220 219 218 219 220 218 218 218 218 215 220 219 218 219 212 216 212 214 221 217 214 215 203 191 208 198 198 229 225 323 25 23 20 25 25 12 1 5 14
217 219 220 222 225 225 224 224 221 221 222 223 221 222 222 220 219 222 224 223 221 215 217 218 217 220 218 223 221 208 211 218 223 235 237 266 335 7 1 15 26 355 339 22 10
217 219 222 224 226 227 228 226 224 221 222 223 226 226 225 227 225 224 225 227 225 224 221 221 219 221 223 224 228 227 225 228 230 231 240 271 280 309 309 336 339 354 352 356 0
220 221 223 226 226 227 229 228 226 225 225 225 225 226 226 228 228 227 228 230 228 228 228 226 223 222 224 226 228 228 229 230 232 236 239 261 267 279 305 323 339 12 352 326 320
224 226 225 226 228 229 230 231 229 227 226 227 227 228 228 226 229 230 230 230 231 231 229 229 229 228 227 230 226 231 235 232 237 239 241 252 262 271 282 294 311 288 304 308 306
227 228 229 229 230 230 230 230 230 230 229 228 229 229 230 231 230 229 230 229 231 230 231 230 230 232 230 232 233 234 233 234 239 242 245 247 256 267 277 281 297 289 308 311 330
230 231 231 233 234 234 233 233 231 231 232 229 229 230 231 231 232 233 231 230 231 231 231 232 229 231 235 234 234 234 237 235 231 245 245 249 249 260 268 276 281 290 304 312 315
233 234 234 234 236 237 236 235 233 231 231 231 230 230 232 231 233 233 234 233 232 231 232 231 230 228 234 238 236 238 235 237 240 246 249 250 252 257 264 269 277 281 292 299 305
236 237 237 238 238 238 239 238 236 234 232 231 231 231 230 232 231 233 235 234 233 233 229 228 229 231 231 235 240 241 242 238 239 245 250 254 255 259 263 267 273 280 281 286 296
238 239 240 241 242 242 241 240 239 237 234 233 233 230 230 233 234 234 234 234 233 230 230 233 229 229 230 232 236 243 245 245 244 244 248 253 255 259 262 264 270 272 279 283 288
244 245 246 246 244 243 243 242 242 241 238 235 234 233 230 231 233 234 234 234 233 233 232 230 228 230 232 235 235 238 243 245 246 247 247 251 254 257 261 264 265 269 270 276 284
250 249 249 250 251 251 250 248 247 246 244 240 240 237 234 231 233 234 234 234 235 233 232 231 229 231 232 233 236 237 239 243 245 245 249 251 253 253 256 262 267 269 270 273 278
252 253 254 254 255 255 254 253 252 250 250 245 242 243 238 234 233 234 234 234 233 234 233 231 230 229 230 233 234 235 239 241 244 246 248 251 253 256 258 261 265 268 270 271 275
259 259 259 259 258 258 258 257 257 255 253 250 246 242 241 238 235 234 234 234 234 234 235 231 231 230 230 232 233 234 238 240 240 243 246 248 251 253 256 260 261 263 265 265 264
263 265 266 266 266 265 264 263 260 259 255 253 249 244 241 241 238 236 235 234 234 236 236 234 233 233 232 233 235 236 238 240 241 242 243 245 247 251 252 252 253 254 256 258 262
272 271 269 268 268 266 264 264 265 264 262 258 253 249 244 242 240 238 237 235 235 234 234 235 235 234 234 233 234 235 236 237 238 240 241 243 246 246 247 249 249 250 254 257 260
280 278 279 277 274 275 274 271 268 264 264 263 261 255 247 243 239 239 237 237 235 233 233 234 234 235 234 232 234 235 236 237 237 237 239 241 242 244 246 246 249 252 253 254 256
286 290 292 292 297 301 302 294 282 277 269 263 263 261 254 244 239 238 235 234 234 233 231 232 232 233 234 234 235 236 235 237 238 238 241 242 245 247 245 247 249 251 252 253 254
291 295 297 305 313 318 323 322 314 304 293 272 268 263 261 253 241 234 233 233 233 233 233 233 233 234 234 234 236 236 237 239 239 239 240 241 243 246 246 246 246 247 248 251 252
291 291 301 309 318 326 330 333 335 337 332 296 272 267 262 255 246 237 231 231 228 230 232 230 231 232 234 231 234 234 234 235 237 239 241 243 245 246 247 248 246 247 250 249 251
286 295 304 310 317 326 333 335 336 342 340 329 291 271 262 250 240 235 232 230 226 227 227 229 231 229 230 229 229 232 234 236 235 235 237 239 240 243 245 246 245 245 245 246 247
290 301 309 312 320 327 333 337 339 341 343 339 317 283 267 256 242 235 231 227 223 226 223 226 228 228 231 231 231 231 231 233 233 235 236 238 240 244 244 244 242 242 242 243 243
295 306 311 316 321 328 333 338 339 341 342 341 335 305 268 262 249 238 231 228 226 222 222 224 225 226 227 227 228 228 230 231 232 232 234 235 238 241 242 242 240 242 245 245 244
300 309 315 318 322 328 332 336 338 340 341 341 339 324 298 267 259 243 232 227 225 224 222 222 223 224 225 227 228 228 230 229 230 231 233 234 236 237 239 240 240 243 242 243 244
305 312 317 319 322 327 331 334 337 339 340 340 339 333 303 284 258 245 236 231 226 223 224 222 221 223 223 225 228 227 228 230 232 232 233 235 237 234 238 240 239 239 240 242 242
Height
10911 10917 10922 10927 10933 10939 10945 10951 10957 10962 10968 10973 10978 10984 10989 10995 10998 11004 11009 11013 11016 11020 11024 11027 11030 11032 11035 11036 11038 11039 11041 11041 11041 11042 11041 11040 11039 11037 11036 11033 11029 11026 11025 11022 11019
10903 10911 10916 10921 10927 10933 10938 10945 10952 10957 10962 10967 10972 10978 10984 10989 10993 10998 11004 11010 11013 11017 11021 11025 11028 11031 11033 11035 11037 11039 11040 11041 11041 11041 11041 11040 11039 11039 11037 11035 11032 11027 11028 11026 11023
10898 10904 10909 10915 10920 10927 10933 10939 10945 10950 10956 10961 10966 10972 10977 10983 10988 10993 10998 11003 11009 11013 11017 11022 11025 11028 11030 11033 11035 11038 11040 11040 11040 11040 11040 11040 11040 11040 11039 11037 11036 11032 11031 11030 11028
10892 10897 10902 10908 10913 10919 10926 10931 10937 10943 10948 10954 10960 10965 10971 10977 10982 10986 10991 10996 11003 11008 11012 11018 11021 11024 11027 11029 11032 11035 11038 11040 11039 11040 11039 11040 11040 11040 11040 11039 11038 11036 11033 11031 11031
10886 10891 10895 10900 10905 10911 10916 10921 10928 10934 10940 10946 10952 10958 10963 10969 10975 10980 10985 10990 10997 11003 11007 11012 11017 11020 11024 11026 11028 11033 11035 11037 11039 11039 11038 11038 11040 11040 11040 11040 11039 11037 11035 11035 11033
10880 10884 10888 10893 10897 10901 10905 10911 10918 10924 10931 10937 10943 10949 10955 10962 10966 10972 10977 10983 10989 10995 11001 11005 11010 11015 11018 11020 11024 11028 11031 11033 11035 11037 11038 11038 11038 11038 11038 11040 11040 11039 11036 11037 11035
10874 10877 10881 10885 10889 10892 10896 10901 10907 10914 10921 10927 10933 10939 10946 10952 10958 10963 10968 10973 10980 10987 10993 10998 11003 11008 11012 11013 11018 11023 11026 11028 11031 11033 11034 11036 11036 11037 11037 11039 11039 11040 11040 11038 11037
10865 10868 10872 10876 10880 10883 10887 10891 10896 10903 10910 10916 10923 10928 10936 10940 10946 10952 10958 10963 10970 10977 10983 10989 10995 10999 11003 11007 11011 11016 11020 11023 11026 11028 11030 11033 11034 11034 11035 11037 11039 11038 11038 11038 11038
10856 10860 10864 10867 10870 10874 10877 10881 10886 10891 10896 10903 10909 10916 10925 10931 10937 10940 10946 10952 10961 10966 10973 10979 10986 10990 10994 10999 11003 11008 11013 11018 11027 11023 11025 11027 11029 11030 11033 11034 11035 11036 11036 11037 11037
10850 10853 10856 10859 10862 10864 10867 10871 10875 10879 10884 10889 10895 10902 10913 10920 10922 10928 10934 10941 10947 10956 10964 10969 10974 10980 10984 10988 10994 10998 11006 11011 11014 11017 11019 11022 11024 11026 11028 11030 11031 11033 11034 11035 11035
10841 10843 10846 10849 10851 10853 10857 10859 10863 10866 10871 10877 10882 10891 10895 10904 10908 10916 10921 10927 10935 10945 10951 10956 10963 10971 10972 10976 10982 10993 10996 11002 11008 11010 11012 11015 11018 11020 11022 11025 11027 11029 11029 11031 11032
10833 10835 10837 10839 10841 10843 10844 10846 10848 10851 10855 10860 10866 10873 10882 10886 10893 10899 10905 10914 10921 10930 10935 10945 10956 10952 10957 10967 10976 10980 10986 10992 10999 11002 11006 11007 11010 11013 11015 11019 11021 11025 11026 11026 11029
10824 10825 10827 10829 10830 10829 10829 10831 10833 10837 10839 10848 10850 10856 10864 10867 10874 10881 10889 10896 10906 10914 10923 10933 10936 10937 10949 10956 10965 10971 10975 10981 10987 10995 10996 11000 11003 11006 11008 11011 11015 11019 11022 11022 11025
10814 10816 10816 10816 10817 10819 10819 10820 10822 10825 10824 10838 10834 10841 10845 10852 10853 10862 10871 10880 10890 10902 10907 10917 10917 10930 10938 10945 10952 10959 10965 10970 10978 10982 10986 10991 10997 10997 11001 11004 11008 11010 11014 11017 11018
10802 10803 10804 10804 10804 10805 10805 10807 10807 10809 10810 10816 10818 10816 10824 10830 10841 10841 10852 10860 10872 10879 10886 10909 10905 10916 10926 10933 10939 10946 10951 10958 10966 10971 10977 10980 10986 10990 10993 10997 11000 11002 11005 11008 11012
10793 10793 10793 10792 10790 10790 10790 10789 10790 10790 10788 10789 10790 10795 10798 10807 10817 10825 10833 10841 10851 10857 10869 10884 10887 10900 10911 10913 10922 10929 10936 10945 10954 10959 10967 10971 10976 10981 10984 10990 10992 10995 10997 11001 11004
10784 10783 10781 10779 10778 10776 10773 10772 10770 10766 10763 10762 10766 10769 10780 10781 10795 10806 10813 10821 10833 10841 10854 10861 10875 10883 10892 10901 10909 10918 10926 10935 10943 10950 10957 10960 10965 10968 10976 10980 10983 10987 10989 10992 10995
10774 10772 10770 10768 10765 10761 10759 10755 10750 10745 10740 10736 10735 10746 10758 10763 10778 10779 10791 10801 10811 10819 10826 10838 10845 10867 10878 10889 10893 10900 10910 10923 10931 10937 10942 10946 10954 10958 10964 10968 10972 10977 10980 10983 10987
10764 10761 10758 10756 10752 10747 10743 10739 10733 10726 10718 10709 10706 10716 10725 10738 10748 10757 10767 10773 10781 10791 10804 10811 10831 10837 10848 10862 10869 10886 10894 10910 10912 10919 10926 10934 10938 10944 10954 10956 10962 10967 10972 10974 10978
10754 10751 10748 10743 10740 10736 10730 10722 10716 10706 10694 10685 10680 10684 10694 10704 10718 10722 10733 10736 10744 10764 10774 10788 10803 10810 10830 10839 10853 10861 10883 10881 10896 10908 10918 10921 10925 10933 10940 10946 10951 10957 10960 10965 10970
10745 10742 10737 10733 10728 10722 10716 10708 10700 10689 10676 10665 10656 10655 10662 10670 10680 10686 10695 10702 10722 10733 10752 10777 10785 10798 10801 10826 10840 10851 10856 10871 10882 10891 10902 10908 10915 10915 10925 10934 10940 10946 10949 10954 10960
10736 10733 10729 10724 10718 10711 10705 10695 10684 10673 10660 10647 10637 10630 10633 10637 10641 10654 10657 10668 10691 10709 10732 10744 10753 10769 10780 10809 10810 10820 10838 10850 10861 10881 10887 10891 10900 10899 10912 10919 10931 10932 10941 10943 10948
10727 10724 10720 10715 10709 10702 10692 10683 10669 10658 10644 10632 10620 10611 10608 10609 10614 10618 10625 10639 10668 10680 10702 10703 10723 10745 10758 10773 10782 10802 10825 10838 10850 10853 10862 10874 10883 10880 10897 10906 10915 10923 10925 10932 10938
10719 10715 10710 10704 10696 10688 10680 10670 10658 10645 10632 10617 10604 10596 10589 10586 10588 10594 10601 10615 10634 10647 10670 10678 10700 10721 10735 10757 10776 10787 10796 10807 10825 10831 10853 10862 10863 10869 10882 10888 10897 10911 10915 10921 10927
10709 10706 10701 10694 10686 10677 10668 10658 10645 10633 10621 10606 10593 10582 10573 10568 10569 10569 10578 10596 10604 10619 10636 10652 10671 10691 10709 10725 10744 10756 10771 10789 10802 10824 10829 10843 10844 10853 10862 10855 10889 10897 10903 10909 10915
10701 10697 10691 10684 10676 10668 10658 10647 10635 10623 10609 10595 10582 10570 10559 10554 10551 10552 10558 10563 10575 10594 10608 10623 10649 10663 10681 10701 10718 10734 10754 10769 10784 10801 10808 10815 10826 10837 10822 10845 10880 10883 10890 10897 10901
10693 10688 10682 10675 10667 10658 10648 10638 10625 10613 10599 10583 10570 10558 10547 10538 10534 10536 10540 10547 10556 10573 10583 10602 10622 10637 10660 10680 10695 10719 10738 10751 10769 10781 10792 10798 10813 10802 10801 10850 10862 10864 10872 10878 10885